Time,TemperatureF,DewpointF,PressureIn,WindDirection,WindDirectionDegrees,WindSpeedMPH,WindSpeedGustMPH,Humidity,HourlyPrecipIn,Conditions,Clouds,dailyrainin,SoftwareType,DateUTC
2013-09-20 00:13:00,68.0,-99.9,-100.00,East,93,2.0,3.0,-999,0.10,,,1.12,,2013-09-20 05:13:00,
2013-09-20 00:23:00,68.0,-99.9,-100.00,East,93,2.0,3.0,-999,0.10,,,1.12,,2013-09-20 05:23:00,
2013-09-20 00:43:00,68.0,-99.9,-100.00,SSE,153,3.0,7.0,-999,0.03,,,1.13,,2013-09-20 05:43:00,
2013-09-20 00:53:00,68.0,-99.9,-100.00,SSE,153,3.0,7.0,-999,0.03,,,1.13,,2013-09-20 05:53:00,
2013-09-20 01:12:00,68.0,-99.9,-100.00,SSE,151,2.0,4.0,-999,0.02,,,1.14,,2013-09-20 06:12:00,
2013-09-20 01:22:00,68.0,-99.9,-100.00,SSE,151,2.0,4.0,-999,0.02,,,1.14,,2013-09-20 06:22:00,
2013-09-20 01:43:00,68.0,-99.9,-100.00,SW,221,2.0,2.0,-999,0.02,,,1.15,,2013-09-20 06:43:00,
2013-09-20 01:52:00,68.0,-99.9,-100.00,SW,221,2.0,2.0,-999,0.02,,,1.15,,2013-09-20 06:52:00,
2013-09-20 02:12:00,68.0,-99.9,-100.00,SSW,210,0.0,1.0,-999,0.01,,,1.15,,2013-09-20 07:12:00,
2013-09-20 02:23:00,68.0,-99.9,-100.00,SSW,210,0.0,1.0,-999,0.01,,,1.15,,2013-09-20 07:23:00,
2013-09-20 02:42:00,68.0,-99.9,-100.00,SW,215,3.0,5.0,-999,0.02,,,1.17,,2013-09-20 07:42:00,
2013-09-20 02:53:00,68.0,-99.9,-100.00,SW,215,3.0,5.0,-999,0.02,,,1.17,,2013-09-20 07:53:00,
2013-09-20 03:12:00,68.0,-99.9,-100.00,SSW,211,3.0,4.0,-999,0.04,,,1.19,,2013-09-20 08:12:00,
2013-09-20 03:22:00,68.0,-99.9,-100.00,SSW,211,3.0,4.0,-999,0.04,,,1.19,,2013-09-20 08:22:00,
2013-09-20 03:42:00,68.0,-99.9,-100.00,SSW,197,2.0,4.0,-999,0.02,,,1.19,,2013-09-20 08:42:00,
2013-09-20 04:12:00,68.0,-99.9,-100.00,SW,214,2.0,3.0,-999,0.00,,,1.19,,2013-09-20 09:12:00,
2013-09-20 04:22:00,68.0,-99.9,-100.00,SW,214,2.0,3.0,-999,0.00,,,1.19,,2013-09-20 09:22:00,
2013-09-20 04:44:00,68.0,-99.9,-100.00,SSW,200,2.0,4.0,-999,0.00,,,1.19,,2013-09-20 09:44:00,
2013-09-20 04:54:00,68.0,-99.9,-100.00,SSW,200,2.0,4.0,-999,0.00,,,1.19,,2013-09-20 09:54:00,
2013-09-20 05:13:00,68.0,-99.9,-100.00,SW,224,5.0,7.0,-999,0.00,,,1.19,,2013-09-20 10:13:00,
2013-09-20 05:23:00,68.0,-99.9,-100.00,SW,224,5.0,7.0,-999,0.00,,,1.19,,2013-09-20 10:23:00,
2013-09-20 05:42:00,69.0,-99.9,-100.00,SW,227,3.0,5.0,-999,0.00,,,1.19,,2013-09-20 10:42:00,
2013-09-20 05:53:00,69.0,-99.9,-100.00,SW,227,3.0,5.0,-999,0.00,,,1.19,,2013-09-20 10:53:00,
2013-09-20 06:12:00,69.0,-99.9,-100.00,SSW,213,4.0,5.0,-999,0.00,,,1.19,,2013-09-20 11:12:00,
2013-09-20 06:23:00,69.0,-99.9,-100.00,SSW,213,4.0,5.0,-999,0.00,,,1.19,,2013-09-20 11:23:00,
2013-09-20 06:42:00,69.0,-99.9,-100.00,SW,221,4.0,5.0,-999,0.00,,,1.19,,2013-09-20 11:42:00,
2013-09-20 06:52:00,69.0,-99.9,-100.00,SW,221,4.0,5.0,-999,0.00,,,1.19,,2013-09-20 11:52:00,
2013-09-20 07:12:00,69.0,-99.9,-100.00,WSW,251,3.0,7.0,-999,0.00,,,1.19,,2013-09-20 12:12:00,
2013-09-20 07:22:00,69.0,-99.9,-100.00,WSW,251,3.0,7.0,-999,0.00,,,1.19,,2013-09-20 12:22:00,
2013-09-20 07:43:00,69.0,-99.9,-100.00,WNW,295,5.0,7.0,-999,0.00,,,1.19,,2013-09-20 12:43:00,
2013-09-20 07:52:00,69.0,-99.9,-100.00,WNW,295,5.0,7.0,-999,0.00,,,1.19,,2013-09-20 12:52:00,
2013-09-20 08:12:00,69.0,-99.9,-100.00,WNW,295,4.0,6.0,-999,0.00,,,1.19,,2013-09-20 13:12:00,
2013-09-20 08:22:00,69.0,-99.9,-100.00,WNW,295,4.0,6.0,-999,0.00,,,1.19,,2013-09-20 13:22:00,
2013-09-20 08:42:00,68.0,-99.9,-100.00,NW,306,5.0,9.0,-999,0.00,,,1.19,,2013-09-20 13:42:00,
2013-09-20 08:53:00,68.0,-99.9,-100.00,NW,306,5.0,9.0,-999,0.00,,,1.19,,2013-09-20 13:53:00,
2013-09-20 09:11:00,67.0,-99.9,-100.00,NNW,336,11.0,22.0,-999,0.00,,,1.19,,2013-09-20 14:11:00,
2013-09-20 09:22:00,67.0,-99.9,-100.00,NNW,336,11.0,22.0,-999,0.00,,,1.19,,2013-09-20 14:22:00,
2013-09-20 09:43:00,65.0,-99.9,-100.00,NNW,340,6.0,10.0,-999,0.00,,,1.19,,2013-09-20 14:43:00,
2013-09-20 09:52:00,65.0,-99.9,-100.00,NNW,340,6.0,10.0,-999,0.00,,,1.19,,2013-09-20 14:52:00,
2013-09-20 10:12:00,64.0,-99.9,-100.00,NW,324,11.0,15.0,-999,0.00,,,1.19,,2013-09-20 15:12:00,
2013-09-20 10:22:00,64.0,-99.9,-100.00,NW,324,11.0,15.0,-999,0.00,,,1.19,,2013-09-20 15:22:00,
2013-09-20 10:44:00,64.0,-99.9,-100.00,NNW,339,8.0,14.0,-999,0.00,,,1.19,,2013-09-20 15:44:00,
2013-09-20 10:54:00,64.0,-99.9,-100.00,NNW,339,8.0,14.0,-999,0.00,,,1.19,,2013-09-20 15:54:00,
2013-09-20 11:13:00,65.0,-99.9,-100.00,NNW,333,7.0,10.0,-999,0.00,,,1.19,,2013-09-20 16:13:00,
2013-09-20 11:23:00,65.0,-99.9,-100.00,NNW,333,7.0,10.0,-999,0.00,,,1.19,,2013-09-20 16:23:00,
2013-09-20 11:43:00,65.0,-99.9,-100.00,NNW,348,6.0,11.0,-999,0.00,,,1.19,,2013-09-20 16:43:00,
2013-09-20 11:53:00,65.0,-99.9,-100.00,NNW,348,6.0,11.0,-999,0.00,,,1.19,,2013-09-20 16:53:00,
2013-09-20 12:13:00,66.0,-99.9,-100.00,NNW,334,7.0,12.0,-999,0.00,,,1.19,,2013-09-20 17:13:00,
2013-09-20 12:24:00,66.0,-99.9,-100.00,NNW,334,7.0,12.0,-999,0.00,,,1.19,,2013-09-20 17:24:00,
2013-09-20 12:43:00,67.0,-99.9,-100.00,NW,313,9.0,14.0,-999,0.00,,,1.19,,2013-09-20 17:43:00,
2013-09-20 12:53:00,67.0,-99.9,-100.00,NW,313,9.0,14.0,-999,0.00,,,1.19,,2013-09-20 17:53:00,
2013-09-20 13:12:00,67.0,-99.9,-100.00,NW,322,7.0,11.0,-999,0.00,,,1.19,,2013-09-20 18:12:00,
2013-09-20 13:22:00,67.0,-99.9,-100.00,NW,322,7.0,11.0,-999,0.00,,,1.19,,2013-09-20 18:22:00,
2013-09-20 13:42:00,68.0,-99.9,-100.00,NNW,331,6.0,9.0,-999,0.00,,,1.19,,2013-09-20 18:42:00,
2013-09-20 13:52:00,68.0,-99.9,-100.00,NNW,331,6.0,9.0,-999,0.00,,,1.19,,2013-09-20 18:52:00,
2013-09-20 14:12:00,68.0,-99.9,-100.00,NW,318,7.0,10.0,-999,0.00,,,1.19,,2013-09-20 19:12:00,
2013-09-20 14:22:00,68.0,-99.9,-100.00,NW,318,7.0,10.0,-999,0.00,,,1.19,,2013-09-20 19:22:00,
2013-09-20 14:42:00,68.0,-99.9,-100.00,WNW,293,8.0,9.0,-999,0.00,,,1.19,,2013-09-20 19:42:00,
2013-09-20 14:53:00,68.0,-99.9,-100.00,WNW,293,8.0,9.0,-999,0.00,,,1.19,,2013-09-20 19:53:00,
2013-09-20 15:12:00,69.0,-99.9,-100.00,NW,311,5.0,11.0,-999,0.00,,,1.19,,2013-09-20 20:12:00,
2013-09-20 15:22:00,69.0,-99.9,-100.00,NW,311,5.0,11.0,-999,0.00,,,1.19,,2013-09-20 20:22:00,
2013-09-20 15:42:00,70.0,-99.9,-100.00,NW,315,6.0,11.0,-999,0.01,,,1.20,,2013-09-20 20:42:00,
2013-09-20 15:52:00,70.0,-99.9,-100.00,NW,315,6.0,11.0,-999,0.01,,,1.20,,2013-09-20 20:52:00,
2013-09-20 16:12:00,70.0,-99.9,-100.00,WNW,296,6.0,13.0,-999,0.01,,,1.20,,2013-09-20 21:12:00,
2013-09-20 16:22:00,70.0,-99.9,-100.00,WNW,296,6.0,13.0,-999,0.01,,,1.20,,2013-09-20 21:22:00,
2013-09-20 16:45:00,70.0,-99.9,-100.00,NW,315,10.0,17.0,-999,0.00,,,1.20,,2013-09-20 21:45:00,
2013-09-20 16:55:00,70.0,-99.9,-100.00,NW,315,10.0,17.0,-999,0.00,,,1.20,,2013-09-20 21:55:00,
2013-09-20 17:14:00,70.0,-99.9,-100.00,NW,322,8.0,16.0,-999,0.00,,,1.20,,2013-09-20 22:14:00,
2013-09-20 17:24:00,70.0,-99.9,-100.00,NW,322,8.0,16.0,-999,0.00,,,1.20,,2013-09-20 22:24:00,
2013-09-20 17:44:00,70.0,-99.9,-100.00,WNW,302,9.0,18.0,-999,0.00,,,1.20,,2013-09-20 22:44:00,
2013-09-20 17:53:00,70.0,-99.9,-100.00,WNW,302,9.0,18.0,-999,0.00,,,1.20,,2013-09-20 22:53:00,
2013-09-20 18:13:00,69.0,-99.9,-100.00,WNW,303,8.0,13.0,-999,0.00,,,1.20,,2013-09-20 23:13:00,
2013-09-20 18:23:00,69.0,-99.9,-100.00,WNW,303,8.0,13.0,-999,0.00,,,1.20,,2013-09-20 23:23:00,
2013-09-20 18:43:00,68.0,-99.9,-100.00,NW,315,7.0,11.0,-999,0.00,,,1.20,,2013-09-20 23:43:00,
2013-09-20 18:53:00,68.0,-99.9,-100.00,NW,315,7.0,11.0,-999,0.00,,,1.20,,2013-09-20 23:53:00,
2013-09-20 19:12:00,67.0,-99.9,-100.00,NW,319,4.0,7.0,-999,0.00,,,1.20,,2013-09-21 00:12:00,
2013-09-20 19:22:00,67.0,-99.9,-100.00,NW,319,4.0,7.0,-999,0.00,,,1.20,,2013-09-21 00:22:00,
2013-09-20 19:42:00,67.0,-99.9,-100.00,North,352,3.0,5.0,-999,0.00,,,1.20,,2013-09-21 00:42:00,
2013-09-20 19:52:00,67.0,-99.9,-100.00,North,352,3.0,5.0,-999,0.00,,,1.20,,2013-09-21 00:52:00,
2013-09-20 20:12:00,66.0,-99.9,-100.00,NW,326,3.0,4.0,-999,0.00,,,1.20,,2013-09-21 01:12:00,
2013-09-20 20:22:00,66.0,-99.9,-100.00,NW,326,3.0,4.0,-999,0.00,,,1.20,,2013-09-21 01:22:00,
2013-09-20 20:42:00,65.0,-99.9,-100.00,NW,317,3.0,4.0,-999,0.00,,,1.20,,2013-09-21 01:42:00,
2013-09-20 20:52:00,65.0,-99.9,-100.00,NW,317,3.0,4.0,-999,0.00,,,1.20,,2013-09-21 01:52:00,
2013-09-20 21:12:00,64.0,-99.9,-100.00,WNW,297,2.0,4.0,-999,0.00,,,1.20,,2013-09-21 02:12:00,
2013-09-20 21:22:00,64.0,-99.9,-100.00,WNW,297,2.0,4.0,-999,0.00,,,1.20,,2013-09-21 02:22:00,
2013-09-20 21:42:00,63.0,-99.9,-100.00,WNW,289,4.0,4.0,-999,0.00,,,1.20,,2013-09-21 02:42:00,
2013-09-20 21:52:00,63.0,-99.9,-100.00,WNW,289,4.0,4.0,-999,0.00,,,1.20,,2013-09-21 02:52:00,
2013-09-20 22:12:00,63.0,-99.9,-100.00,NW,309,3.0,4.0,-999,0.00,,,0.91,,2013-09-21 03:12:00,
2013-09-20 22:22:00,63.0,-99.9,-100.00,NW,309,3.0,4.0,-999,0.00,,,0.91,,2013-09-21 03:22:00,
2013-09-20 22:44:00,61.0,-99.9,-100.00,NW,315,5.0,6.0,-999,0.00,,,0.27,,2013-09-21 03:44:00,
2013-09-20 22:55:00,61.0,-99.9,-100.00,NW,315,5.0,6.0,-999,0.00,,,0.27,,2013-09-21 03:55:00,
2013-09-20 23:14:00,61.0,-99.9,-100.00,NW,312,2.0,4.0,-999,0.00,,,0.18,,2013-09-21 04:14:00,
2013-09-20 23:24:00,61.0,-99.9,-100.00,NW,312,2.0,4.0,-999,0.00,,,0.18,,2013-09-21 04:24:00,
2013-09-20 23:44:00,61.0,-99.9,-100.00,NW,314,2.0,4.0,-999,0.00,,,0.10,,2013-09-21 04:44:00,
2013-09-20 23:54:00,61.0,-99.9,-100.00,NW,314,2.0,4.0,-999,0.00,,,0.10,,2013-09-21 04:54:00,